Location: Kuppenheim
(48.8299°N, 8.2568°E)
Time: 15:27:04
(UTC+00:00)

SL-16 R/B - Pass Details

Date: 20 June 2021
Orbit: 842 x 847 km, 71.0° (Epoch: 04 August)

Event Time Altitude Azimuth Distance (km) Brightness Sun altitude
Exits shadow 00:20:21 16° 238° (WSW) 2,089 3.8 -16.8°
Maximum altitude 00:24:42 46° 306° (NW) 1,129 3.0 -16.7°
Drops below altitude 10° 00:30:09 10° 20° (NNE) 2,474 6.0 -16.4°
Sets 00:32:43 0° 26° (NNE) 3,412 7.0 -16.3°
